Time,TemperatureF,DewpointF,PressureIn,WindDirection,WindDirectionDegrees,WindSpeedMPH,WindSpeedGustMPH,Humidity,HourlyPrecipIn,Conditions,Clouds,dailyrainin,SoftwareType,DateUTC
2013-05-18 00:01:00,43.0,40.0,30.35,SW,225,2.0,4.0,88,0.00,,,0.00,Rainwise IP-100,2013-05-18 04:01:00,
2013-05-18 00:06:00,42.0,40.0,30.35,SW,225,3.0,5.0,92,0.00,,,0.00,Rainwise IP-100,2013-05-18 04:06:00,
2013-05-18 00:11:00,42.0,40.0,30.36,SW,225,6.0,7.0,93,0.00,,,0.00,Rainwise IP-100,2013-05-18 04:11:00,
2013-05-18 00:16:00,43.0,40.0,30.36,SSW,202,6.0,7.0,90,0.00,,,0.00,Rainwise IP-100,2013-05-18 04:16:00,
2013-05-18 00:21:00,44.0,40.0,30.35,South,180,6.0,7.0,86,0.00,,,0.00,Rainwise IP-100,2013-05-18 04:21:00,
2013-05-18 00:26:00,44.0,40.0,30.35,South,180,5.0,7.0,87,0.00,,,0.00,Rainwise IP-100,2013-05-18 04:26:00,
2013-05-18 00:31:00,43.0,39.0,30.36,South,180,3.0,6.0,87,0.00,,,0.00,Rainwise IP-100,2013-05-18 04:31:00,
2013-05-18 00:36:00,43.0,40.0,30.36,South,180,1.0,5.0,89,0.00,,,0.00,Rainwise IP-100,2013-05-18 04:36:00,
2013-05-18 00:41:00,42.0,40.0,30.36,South,180,0.0,3.0,91,0.00,,,0.00,Rainwise IP-100,2013-05-18 04:41:00,
2013-05-18 00:46:00,41.0,39.0,30.36,South,180,2.0,3.0,93,0.00,,,0.00,Rainwise IP-100,2013-05-18 04:46:00,
2013-05-18 00:51:00,42.0,40.0,30.36,SSW,202,5.0,6.0,93,0.00,,,0.00,Rainwise IP-100,2013-05-18 04:51:00,
2013-05-18 00:56:00,42.0,40.0,30.36,South,180,5.0,7.0,93,0.00,,,0.00,Rainwise IP-100,2013-05-18 04:56:00,
2013-05-18 01:01:00,42.0,40.0,30.36,South,180,4.0,6.0,91,0.00,,,0.00,Rainwise IP-100,2013-05-18 05:01:00,
2013-05-18 01:06:00,42.0,39.0,30.36,South,180,2.0,5.0,90,0.00,,,0.00,Rainwise IP-100,2013-05-18 05:06:00,
2013-05-18 01:11:00,42.0,40.0,30.36,South,180,0.0,3.0,91,0.00,,,0.00,Rainwise IP-100,2013-05-18 05:11:00,
2013-05-18 01:16:00,41.0,39.0,30.36,South,180,0.0,0.0,92,0.00,,,0.00,Rainwise IP-100,2013-05-18 05:16:00,
2013-05-18 01:21:00,41.0,39.0,30.37,South,180,1.0,2.0,94,0.00,,,0.00,Rainwise IP-100,2013-05-18 05:21:00,
2013-05-18 01:26:00,41.0,40.0,30.37,SW,225,4.0,5.0,95,0.00,,,0.00,Rainwise IP-100,2013-05-18 05:26:00,
2013-05-18 01:31:00,41.0,39.0,30.37,SSW,202,6.0,7.0,93,0.00,,,0.00,Rainwise IP-100,2013-05-18 05:31:00,
2013-05-18 01:36:00,43.0,40.0,30.35,South,180,6.0,7.0,89,0.00,,,0.00,Rainwise IP-100,2013-05-18 05:36:00,
2013-05-18 01:41:00,42.0,39.0,30.36,SSE,157,6.0,7.0,89,0.00,,,0.00,Rainwise IP-100,2013-05-18 05:41:00,
2013-05-18 01:46:00,42.0,40.0,30.36,South,180,4.0,7.0,92,0.00,,,0.00,Rainwise IP-100,2013-05-18 05:46:00,
2013-05-18 01:51:00,41.0,39.0,30.37,South,180,0.0,4.0,92,0.00,,,0.00,Rainwise IP-100,2013-05-18 05:51:00,
2013-05-18 01:56:00,41.0,40.0,30.37,South,180,0.0,0.0,95,0.00,,,0.00,Rainwise IP-100,2013-05-18 05:56:00,
2013-05-18 02:01:00,40.0,39.0,30.37,South,180,0.0,1.0,96,0.00,,,0.00,Rainwise IP-100,2013-05-18 06:01:00,
2013-05-18 02:06:00,40.0,39.0,30.37,South,180,0.0,2.0,96,0.00,,,0.00,Rainwise IP-100,2013-05-18 06:06:00,
2013-05-18 02:11:00,40.0,39.0,30.37,South,180,1.0,2.0,96,0.00,,,0.00,Rainwise IP-100,2013-05-18 06:11:00,
2013-05-18 02:16:00,40.0,39.0,30.37,South,180,2.0,3.0,96,0.00,,,0.00,Rainwise IP-100,2013-05-18 06:16:00,
2013-05-18 02:21:00,40.0,39.0,30.37,South,180,4.0,5.0,96,0.00,,,0.00,Rainwise IP-100,2013-05-18 06:21:00,
2013-05-18 02:26:00,40.0,39.0,30.36,South,180,0.0,5.0,95,0.00,,,0.00,Rainwise IP-100,2013-05-18 06:26:00,
2013-05-18 02:31:00,40.0,39.0,30.37,South,180,1.0,1.0,96,0.00,,,0.00,Rainwise IP-100,2013-05-18 06:31:00,
2013-05-18 02:36:00,39.0,38.0,30.37,South,180,2.0,2.0,96,0.00,,,0.00,Rainwise IP-100,2013-05-18 06:36:00,
2013-05-18 02:41:00,39.0,38.0,30.37,South,180,1.0,2.0,96,0.00,,,0.00,Rainwise IP-100,2013-05-18 06:41:00,
2013-05-18 02:46:00,39.0,38.0,30.37,South,180,3.0,4.0,96,0.00,,,0.00,Rainwise IP-100,2013-05-18 06:46:00,
2013-05-18 02:51:00,39.0,38.0,30.37,South,180,3.0,5.0,96,0.00,,,0.00,Rainwise IP-100,2013-05-18 06:51:00,
2013-05-18 02:56:00,39.0,38.0,30.37,SW,225,3.0,5.0,96,0.00,,,0.00,Rainwise IP-100,2013-05-18 06:56:00,
2013-05-18 03:01:00,40.0,39.0,30.36,SW,225,2.0,4.0,96,0.00,,,0.00,Rainwise IP-100,2013-05-18 07:01:00,
2013-05-18 03:06:00,40.0,39.0,30.36,SW,225,0.0,3.0,96,0.00,,,0.00,Rainwise IP-100,2013-05-18 07:06:00,
2013-05-18 03:11:00,40.0,39.0,30.37,SSE,157,2.0,5.0,96,0.00,,,0.00,Rainwise IP-100,2013-05-18 07:11:00,
2013-05-18 03:16:00,40.0,39.0,30.37,South,180,5.0,5.0,96,0.00,,,0.00,Rainwise IP-100,2013-05-18 07:16:00,
2013-05-18 03:21:00,40.0,39.0,30.36,South,180,3.0,5.0,96,0.00,,,0.00,Rainwise IP-100,2013-05-18 07:21:00,
2013-05-18 03:26:00,40.0,39.0,30.36,West,270,3.0,4.0,96,0.00,,,0.00,Rainwise IP-100,2013-05-18 07:26:00,
2013-05-18 03:31:00,40.0,39.0,30.37,SW,225,0.0,4.0,96,0.00,,,0.00,Rainwise IP-100,2013-05-18 07:31:00,
2013-05-18 03:36:00,40.0,39.0,30.37,SW,225,0.0,2.0,96,0.00,,,0.00,Rainwise IP-100,2013-05-18 07:36:00,
2013-05-18 03:41:00,40.0,39.0,30.37,SSW,202,1.0,4.0,96,0.00,,,0.00,Rainwise IP-100,2013-05-18 07:41:00,
2013-05-18 03:46:00,39.0,38.0,30.37,SSW,202,2.0,4.0,96,0.00,,,0.00,Rainwise IP-100,2013-05-18 07:46:00,
2013-05-18 03:51:00,39.0,38.0,30.37,SSW,202,2.0,3.0,96,0.00,,,0.00,Rainwise IP-100,2013-05-18 07:51:00,
2013-05-18 03:56:00,38.0,37.0,30.38,SSW,202,3.0,4.0,96,0.00,,,0.00,Rainwise IP-100,2013-05-18 07:56:00,
2013-05-18 04:01:00,39.0,38.0,30.38,SSW,202,1.0,4.0,96,0.00,,,0.00,Rainwise IP-100,2013-05-18 08:01:00,
2013-05-18 04:06:00,39.0,38.0,30.38,SSW,202,4.0,4.0,96,0.00,,,0.00,Rainwise IP-100,2013-05-18 08:06:00,
2013-05-18 04:11:00,39.0,38.0,30.38,SSW,202,4.0,5.0,96,0.00,,,0.00,Rainwise IP-100,2013-05-18 08:11:00,
2013-05-18 04:16:00,39.0,38.0,30.38,SSW,202,2.0,4.0,96,0.00,,,0.00,Rainwise IP-100,2013-05-18 08:16:00,
2013-05-18 04:21:00,39.0,38.0,30.38,SSW,202,0.0,4.0,96,0.00,,,0.00,Rainwise IP-100,2013-05-18 08:21:00,
2013-05-18 04:26:00,38.0,37.0,30.39,SSW,202,0.0,2.0,96,0.00,,,0.00,Rainwise IP-100,2013-05-18 08:26:00,
2013-05-18 04:31:00,38.0,37.0,30.39,SSW,202,0.0,0.0,96,0.00,,,0.00,Rainwise IP-100,2013-05-18 08:31:00,
2013-05-18 04:36:00,37.0,36.0,30.39,SSW,202,0.0,0.0,96,0.00,,,0.00,Rainwise IP-100,2013-05-18 08:36:00,
2013-05-18 04:41:00,37.0,36.0,30.39,SSW,202,3.0,3.0,96,0.00,,,0.00,Rainwise IP-100,2013-05-18 08:41:00,
2013-05-18 04:46:00,37.0,36.0,30.39,SSW,202,4.0,4.0,96,0.00,,,0.00,Rainwise IP-100,2013-05-18 08:46:00,
2013-05-18 04:51:00,38.0,37.0,30.39,SSW,202,1.0,4.0,96,0.00,,,0.00,Rainwise IP-100,2013-05-18 08:51:00,
2013-05-18 04:56:00,38.0,37.0,30.39,SSW,202,3.0,4.0,96,0.00,,,0.00,Rainwise IP-100,2013-05-18 08:56:00,
2013-05-18 05:01:00,39.0,38.0,30.38,SSW,202,2.0,4.0,96,0.00,,,0.00,Rainwise IP-100,2013-05-18 09:01:00,
2013-05-18 05:06:00,40.0,39.0,30.38,SSW,202,6.0,6.0,96,0.00,,,0.00,Rainwise IP-100,2013-05-18 09:06:00,
2013-05-18 05:11:00,40.0,39.0,30.38,South,180,6.0,7.0,96,0.00,,,0.00,Rainwise IP-100,2013-05-18 09:11:00,
2013-05-18 05:16:00,39.0,38.0,30.38,South,180,3.0,7.0,96,0.00,,,0.00,Rainwise IP-100,2013-05-18 09:16:00,
2013-05-18 05:21:00,39.0,38.0,30.38,South,180,6.0,6.0,96,0.00,,,0.00,Rainwise IP-100,2013-05-18 09:21:00,
2013-05-18 05:26:00,38.0,37.0,30.39,South,180,0.0,6.0,96,0.00,,,0.00,Rainwise IP-100,2013-05-18 09:26:00,
2013-05-18 05:31:00,38.0,37.0,30.39,SW,225,2.0,5.0,96,0.00,,,0.00,Rainwise IP-100,2013-05-18 09:31:00,
2013-05-18 05:36:00,37.0,36.0,30.39,SW,225,1.0,4.0,96,0.00,,,0.00,Rainwise IP-100,2013-05-18 09:36:00,
2013-05-18 05:41:00,38.0,37.0,30.40,SW,225,0.0,2.0,96,0.00,,,0.00,Rainwise IP-100,2013-05-18 09:41:00,
2013-05-18 05:46:00,38.0,37.0,30.40,SW,225,0.0,0.0,96,0.00,,,0.00,Rainwise IP-100,2013-05-18 09:46:00,
2013-05-18 05:51:00,38.0,37.0,30.40,SW,225,0.0,0.0,96,0.00,,,0.00,Rainwise IP-100,2013-05-18 09:51:00,
2013-05-18 05:56:00,38.0,37.0,30.40,SW,225,0.0,1.0,96,0.00,,,0.00,Rainwise IP-100,2013-05-18 09:56:00,
2013-05-18 06:01:00,38.0,37.0,30.41,SW,225,1.0,0.0,96,0.00,,,0.00,Rainwise IP-100,2013-05-18 10:01:00,
2013-05-18 06:06:00,38.0,37.0,30.41,SW,225,0.0,1.0,96,0.00,,,0.00,Rainwise IP-100,2013-05-18 10:06:00,
2013-05-18 06:11:00,39.0,38.0,30.41,SW,225,0.0,0.0,96,0.00,,,0.00,Rainwise IP-100,2013-05-18 10:11:00,
2013-05-18 06:16:00,39.0,38.0,30.41,SSW,202,0.0,0.0,96,0.00,,,0.00,Rainwise IP-100,2013-05-18 10:16:00,
2013-05-18 06:21:00,39.0,38.0,30.41,West,270,0.0,3.0,96,0.00,,,0.00,Rainwise IP-100,2013-05-18 10:21:00,
2013-05-18 06:26:00,39.0,38.0,30.41,West,270,0.0,0.0,96,0.00,,,0.00,Rainwise IP-100,2013-05-18 10:26:00,
2013-05-18 06:31:00,40.0,39.0,30.41,West,270,0.0,0.0,96,0.00,,,0.00,Rainwise IP-100,2013-05-18 10:31:00,
2013-05-18 06:36:00,40.0,39.0,30.41,West,270,0.0,0.0,96,0.00,,,0.00,Rainwise IP-100,2013-05-18 10:36:00,
2013-05-18 06:41:00,41.0,40.0,30.42,West,270,0.0,0.0,96,0.00,,,0.00,Rainwise IP-100,2013-05-18 10:41:00,
2013-05-18 06:46:00,41.0,40.0,30.42,West,270,0.0,0.0,96,0.00,,,0.00,Rainwise IP-100,2013-05-18 10:46:00,
2013-05-18 06:51:00,42.0,41.0,30.42,West,270,0.0,0.0,96,0.00,,,0.00,Rainwise IP-100,2013-05-18 10:51:00,
2013-05-18 06:56:00,42.0,41.0,30.42,West,270,0.0,0.0,96,0.00,,,0.00,Rainwise IP-100,2013-05-18 10:56:00,
2013-05-18 07:01:00,43.0,42.0,30.42,West,270,0.0,2.0,96,0.00,,,0.00,Rainwise IP-100,2013-05-18 11:01:00,
2013-05-18 07:06:00,43.0,42.0,30.42,West,270,0.0,0.0,96,0.00,,,0.00,Rainwise IP-100,2013-05-18 11:06:00,
2013-05-18 07:11:00,44.0,43.0,30.42,West,270,0.0,2.0,97,0.00,,,0.00,Rainwise IP-100,2013-05-18 11:11:00,
2013-05-18 07:16:00,45.0,44.0,30.42,West,270,0.0,0.0,97,0.00,,,0.00,Rainwise IP-100,2013-05-18 11:16:00,
2013-05-18 07:21:00,45.0,44.0,30.42,West,270,1.0,1.0,97,0.00,,,0.00,Rainwise IP-100,2013-05-18 11:21:00,
2013-05-18 07:26:00,46.0,45.0,30.42,West,270,0.0,1.0,97,0.00,,,0.00,Rainwise IP-100,2013-05-18 11:26:00,
2013-05-18 07:31:00,46.0,44.0,30.42,NNW,337,0.0,4.0,92,0.00,,,0.00,Rainwise IP-100,2013-05-18 11:31:00,
2013-05-18 07:36:00,47.0,43.0,30.42,NNW,337,0.0,3.0,88,0.00,,,0.00,Rainwise IP-100,2013-05-18 11:36:00,
2013-05-18 07:41:00,49.0,44.0,30.41,NNW,337,1.0,1.0,84,0.00,,,0.00,Rainwise IP-100,2013-05-18 11:41:00,
2013-05-18 07:46:00,49.0,43.0,30.41,NNW,337,0.0,2.0,81,0.00,,,0.00,Rainwise IP-100,2013-05-18 11:46:00,
2013-05-18 07:51:00,50.0,44.0,30.41,NNW,337,0.0,2.0,80,0.00,,,0.00,Rainwise IP-100,2013-05-18 11:51:00,
2013-05-18 07:56:00,52.0,45.0,30.40,NNW,337,0.0,3.0,78,0.00,,,0.00,Rainwise IP-100,2013-05-18 11:56:00,
2013-05-18 08:01:00,53.0,45.0,30.40,NNW,337,2.0,3.0,75,0.00,,,0.00,Rainwise IP-100,2013-05-18 12:01:00,
2013-05-18 08:06:00,54.0,46.0,30.40,NNW,337,1.0,2.0,74,0.00,,,0.00,Rainwise IP-100,2013-05-18 12:06:00,
2013-05-18 08:11:00,54.0,44.0,30.40,NE,45,1.0,2.0,70,0.00,,,0.00,Rainwise IP-100,2013-05-18 12:11:00,
2013-05-18 08:16:00,55.0,45.0,30.39,NE,45,1.0,1.0,68,0.00,,,0.00,Rainwise IP-100,2013-05-18 12:16:00,
2013-05-18 08:21:00,56.0,44.0,30.39,NE,45,1.0,4.0,65,0.00,,,0.00,Rainwise IP-100,2013-05-18 12:21:00,
2013-05-18 08:26:00,56.0,45.0,30.39,NE,45,0.0,3.0,66,0.00,,,0.00,Rainwise IP-100,2013-05-18 12:26:00,
2013-05-18 08:31:00,57.0,45.0,30.39,NE,45,0.0,4.0,63,0.00,,,0.00,Rainwise IP-100,2013-05-18 12:31:00,
2013-05-18 08:36:00,57.0,45.0,30.39,NE,45,1.0,4.0,64,0.00,,,0.00,Rainwise IP-100,2013-05-18 12:36:00,
2013-05-18 08:41:00,58.0,46.0,30.39,ENE,67,0.0,3.0,64,0.00,,,0.00,Rainwise IP-100,2013-05-18 12:41:00,
2013-05-18 08:46:00,58.0,47.0,30.39,NE,45,2.0,5.0,65,0.00,,,0.00,Rainwise IP-100,2013-05-18 12:46:00,
2013-05-18 08:51:00,59.0,46.0,30.39,ENE,67,3.0,4.0,61,0.00,,,0.00,Rainwise IP-100,2013-05-18 12:51:00,
2013-05-18 08:56:00,60.0,46.0,30.39,NNE,22,2.0,4.0,60,0.00,,,0.00,Rainwise IP-100,2013-05-18 12:56:00,
2013-05-18 09:01:00,59.0,46.0,30.39,East,90,1.0,5.0,62,0.00,,,0.00,Rainwise IP-100,2013-05-18 13:01:00,
2013-05-18 09:06:00,59.0,45.0,30.39,East,90,4.0,5.0,60,0.00,,,0.00,Rainwise IP-100,2013-05-18 13:06:00,
2013-05-18 09:11:00,60.0,46.0,30.38,East,90,1.0,4.0,59,0.00,,,0.00,Rainwise IP-100,2013-05-18 13:11:00,
2013-05-18 09:16:00,61.0,47.5,30.38,NNE,22,2.0,3.0,61,0.00,,,0.00,Rainwise IP-100,2013-05-18 13:16:00,
2013-05-18 09:21:00,62.0,47.0,30.37,North,360,1.0,3.0,58,0.00,,,0.00,Rainwise IP-100,2013-05-18 13:21:00,
2013-05-18 09:26:00,62.0,45.0,30.37,East,90,3.0,3.0,53,0.00,,,0.00,Rainwise IP-100,2013-05-18 13:26:00,
2013-05-18 09:31:00,62.0,45.0,30.37,East,90,2.0,4.0,53,0.00,,,0.00,Rainwise IP-100,2013-05-18 13:31:00,
2013-05-18 09:36:00,63.0,47.0,30.37,ENE,67,2.0,4.0,56,0.00,,,0.00,Rainwise IP-100,2013-05-18 13:36:00,
2013-05-18 09:41:00,62.0,45.0,30.37,East,90,6.0,6.0,53,0.00,,,0.00,Rainwise IP-100,2013-05-18 13:41:00,
2013-05-18 09:46:00,64.0,44.0,30.37,NE,45,1.0,6.0,48,0.00,,,0.00,Rainwise IP-100,2013-05-18 13:46:00,
2013-05-18 09:51:00,64.0,44.0,30.36,East,90,4.0,5.0,49,0.00,,,0.00,Rainwise IP-100,2013-05-18 13:51:00,
2013-05-18 09:52:00,64.0,43.0,30.36,ESE,112,4.0,5.0,47,0.00,,,0.00,Rainwise IP-100,2013-05-18 13:52:00,
2013-05-18 09:57:00,63.0,40.0,30.36,East,90,5.0,6.0,43,0.00,,,0.00,Rainwise IP-100,2013-05-18 13:57:00,
2013-05-18 10:02:00,64.0,41.0,30.36,NE,45,4.0,6.0,43,0.00,,,0.00,Rainwise IP-100,2013-05-18 14:02:00,
2013-05-18 10:04:00,64.0,41.0,30.36,East,90,4.0,5.0,43,0.00,,,0.00,Rainwise IP-100,2013-05-18 14:04:00,
2013-05-18 10:09:00,64.0,42.0,30.36,West,270,0.0,6.0,45,0.00,,,0.00,Rainwise IP-100,2013-05-18 14:09:00,
2013-05-18 10:14:00,63.0,39.0,30.36,East,90,6.0,7.0,42,0.00,,,0.00,Rainwise IP-100,2013-05-18 14:14:00,
2013-05-18 10:19:00,64.0,40.0,30.36,East,90,1.0,7.0,42,0.00,,,0.00,Rainwise IP-100,2013-05-18 14:19:00,
2013-05-18 10:24:00,65.0,42.0,30.36,East,90,5.0,7.0,44,0.00,,,0.00,Rainwise IP-100,2013-05-18 14:24:00,
2013-05-18 10:29:00,64.0,38.0,30.36,NW,315,3.0,7.0,39,0.00,,,0.00,Rainwise IP-100,2013-05-18 14:29:00,
2013-05-18 10:34:00,64.0,33.0,30.36,NW,315,9.0,9.0,31,0.00,,,0.00,Rainwise IP-100,2013-05-18 14:34:00,
2013-05-18 10:39:00,63.0,29.0,30.36,NNW,337,7.0,13.0,27,0.00,,,0.00,Rainwise IP-100,2013-05-18 14:39:00,
2013-05-18 10:44:00,63.0,33.0,30.37,NNE,22,2.0,9.0,32,0.00,,,0.00,Rainwise IP-100,2013-05-18 14:44:00,
2013-05-18 10:49:00,63.0,32.0,30.37,NW,315,4.0,6.0,31,0.00,,,0.00,Rainwise IP-100,2013-05-18 14:49:00,
2013-05-18 10:54:00,64.0,33.0,30.36,North,360,5.0,7.0,32,0.00,,,0.00,Rainwise IP-100,2013-05-18 14:54:00,
2013-05-18 10:59:00,64.0,31.0,30.36,NW,315,2.0,13.0,29,0.00,,,0.00,Rainwise IP-100,2013-05-18 14:59:00,
2013-05-18 11:04:00,63.0,31.0,30.36,WNW,292,4.0,13.0,29,0.00,,,0.00,Rainwise IP-100,2013-05-18 15:04:00,
2013-05-18 11:09:00,63.0,29.0,30.36,North,360,5.0,12.0,27,0.00,,,0.00,Rainwise IP-100,2013-05-18 15:09:00,
2013-05-18 11:14:00,64.0,29.0,30.35,NNE,22,5.0,10.0,27,0.00,,,0.00,Rainwise IP-100,2013-05-18 15:14:00,
2013-05-18 11:19:00,63.0,28.0,30.35,NNW,337,6.0,15.0,26,0.00,,,0.00,Rainwise IP-100,2013-05-18 15:19:00,
2013-05-18 11:24:00,64.0,29.0,30.35,North,360,10.0,16.0,27,0.00,,,0.00,Rainwise IP-100,2013-05-18 15:24:00,
2013-05-18 11:29:00,63.0,29.0,30.35,NNW,337,11.0,15.0,27,0.00,,,0.00,Rainwise IP-100,2013-05-18 15:29:00,
2013-05-18 11:34:00,64.0,29.0,30.35,West,270,6.0,13.0,27,0.00,,,0.00,Rainwise IP-100,2013-05-18 15:34:00,
2013-05-18 11:39:00,63.0,31.0,30.35,NW,315,9.0,15.0,29,0.00,,,0.00,Rainwise IP-100,2013-05-18 15:39:00,
2013-05-18 11:44:00,64.0,31.0,30.35,West,270,5.0,11.0,29,0.00,,,0.00,Rainwise IP-100,2013-05-18 15:44:00,
2013-05-18 11:49:00,65.0,32.0,30.35,North,360,6.0,8.0,29,0.00,,,0.00,Rainwise IP-100,2013-05-18 15:49:00,
2013-05-18 11:54:00,66.0,35.0,30.33,NW,315,9.0,10.0,31,0.00,,,0.00,Rainwise IP-100,2013-05-18 15:54:00,
2013-05-18 11:59:00,65.0,35.0,30.33,NW,315,12.0,15.0,33,0.00,,,0.00,Rainwise IP-100,2013-05-18 15:59:00,
2013-05-18 12:04:00,65.0,33.0,30.34,NNW,337,7.0,16.0,31,0.00,,,0.00,Rainwise IP-100,2013-05-18 16:04:00,
2013-05-18 12:09:00,65.0,33.0,30.34,North,360,7.0,14.0,31,0.00,,,0.00,Rainwise IP-100,2013-05-18 16:09:00,
2013-05-18 12:14:00,66.0,36.0,30.33,ENE,67,6.0,12.0,33,0.00,,,0.00,Rainwise IP-100,2013-05-18 16:14:00,
2013-05-18 12:19:00,67.0,38.0,30.33,North,360,4.0,6.0,35,0.00,,,0.00,Rainwise IP-100,2013-05-18 16:19:00,
2013-05-18 12:24:00,67.0,31.0,30.32,SW,225,2.0,6.0,26,0.00,,,0.00,Rainwise IP-100,2013-05-18 16:24:00,
2013-05-18 12:29:00,67.0,35.0,30.32,ENE,67,5.0,7.0,30,0.00,,,0.00,Rainwise IP-100,2013-05-18 16:29:00,
2013-05-18 12:34:00,68.0,38.0,30.32,North,360,6.0,7.0,33,0.00,,,0.00,Rainwise IP-100,2013-05-18 16:34:00,
2013-05-18 12:39:00,67.0,35.0,30.32,NW,315,1.0,12.0,30,0.00,,,0.00,Rainwise IP-100,2013-05-18 16:39:00,
2013-05-18 12:44:00,66.0,31.0,30.33,NW,315,10.0,12.0,27,0.00,,,0.00,Rainwise IP-100,2013-05-18 16:44:00,
2013-05-18 12:49:00,65.0,29.0,30.33,North,360,10.0,16.0,25,0.00,,,0.00,Rainwise IP-100,2013-05-18 16:49:00,
2013-05-18 12:54:00,66.0,35.0,30.33,East,90,3.0,10.0,32,0.00,,,0.00,Rainwise IP-100,2013-05-18 16:54:00,
2013-05-18 12:59:00,67.0,33.0,30.33,ENE,67,4.0,6.0,29,0.00,,,0.00,Rainwise IP-100,2013-05-18 16:59:00,
2013-05-18 13:04:00,67.0,31.0,30.32,East,90,2.0,6.0,26,0.00,,,0.00,Rainwise IP-100,2013-05-18 17:04:00,
2013-05-18 13:09:00,66.0,31.0,30.32,West,270,10.0,10.0,26,0.00,,,0.00,Rainwise IP-100,2013-05-18 17:09:00,
2013-05-18 13:14:00,65.0,31.0,30.32,NW,315,3.0,11.0,27,0.00,,,0.00,Rainwise IP-100,2013-05-18 17:14:00,
2013-05-18 13:19:00,67.0,31.0,30.32,WSW,247,2.0,5.0,25,0.00,,,0.00,Rainwise IP-100,2013-05-18 17:19:00,
2013-05-18 13:24:00,67.0,35.0,30.32,West,270,2.0,6.0,30,0.00,,,0.00,Rainwise IP-100,2013-05-18 17:24:00,
2013-05-18 13:29:00,66.0,35.0,30.32,NW,315,10.0,12.0,31,0.00,,,0.00,Rainwise IP-100,2013-05-18 17:29:00,
2013-05-18 13:34:00,66.0,31.0,30.32,North,360,12.0,12.0,27,0.00,,,0.00,Rainwise IP-100,2013-05-18 17:34:00,
2013-05-18 13:39:00,66.0,29.0,30.32,WSW,247,3.0,12.0,25,0.00,,,0.00,Rainwise IP-100,2013-05-18 17:39:00,
2013-05-18 13:44:00,67.0,32.0,30.31,East,90,5.0,6.0,27,0.00,,,0.00,Rainwise IP-100,2013-05-18 17:44:00,
2013-05-18 13:49:00,67.0,28.0,30.31,SE,135,8.0,9.0,23,0.00,,,0.00,Rainwise IP-100,2013-05-18 17:49:00,
2013-05-18 13:54:00,67.0,32.0,30.31,NW,315,6.0,10.0,27,0.00,,,0.00,Rainwise IP-100,2013-05-18 17:54:00,
2013-05-18 13:59:00,67.0,31.0,30.31,NE,45,6.0,15.0,25,0.00,,,0.00,Rainwise IP-100,2013-05-18 17:59:00,
2013-05-18 14:04:00,69.0,32.0,30.30,North,360,6.0,11.0,25,0.00,,,0.00,Rainwise IP-100,2013-05-18 18:04:00,
2013-05-18 14:09:00,67.0,31.0,30.30,North,360,3.0,17.0,25,0.00,,,0.00,Rainwise IP-100,2013-05-18 18:09:00,
2013-05-18 14:14:00,68.0,31.0,30.30,North,360,5.0,9.0,24,0.00,,,0.00,Rainwise IP-100,2013-05-18 18:14:00,
2013-05-18 14:19:00,68.0,33.0,30.30,North,360,9.0,13.0,28,0.00,,,0.00,Rainwise IP-100,2013-05-18 18:19:00,
2013-05-18 14:24:00,67.0,36.0,30.29,WNW,292,7.0,10.0,31,0.00,,,0.00,Rainwise IP-100,2013-05-18 18:24:00,
2013-05-18 14:29:00,66.0,29.0,30.29,WNW,292,7.0,10.0,25,0.00,,,0.00,Rainwise IP-100,2013-05-18 18:29:00,
2013-05-18 14:34:00,66.0,28.0,30.30,ESE,112,7.0,9.0,24,0.00,,,0.00,Rainwise IP-100,2013-05-18 18:34:00,
2013-05-18 14:39:00,67.0,35.0,30.30,ENE,67,4.0,9.0,30,0.00,,,0.00,Rainwise IP-100,2013-05-18 18:39:00,
2013-05-18 14:44:00,68.0,31.0,30.29,NW,315,10.0,12.0,25,0.00,,,0.00,Rainwise IP-100,2013-05-18 18:44:00,
2013-05-18 14:49:00,68.0,31.0,30.29,NNW,337,2.0,10.0,25,0.00,,,0.00,Rainwise IP-100,2013-05-18 18:49:00,
2013-05-18 14:54:00,68.0,31.0,30.29,North,360,7.0,12.0,25,0.00,,,0.00,Rainwise IP-100,2013-05-18 18:54:00,
2013-05-18 14:59:00,70.0,29.0,30.29,North,360,6.0,7.0,22,0.00,,,0.00,Rainwise IP-100,2013-05-18 18:59:00,
2013-05-18 15:04:00,70.0,33.0,30.27,NW,315,10.0,10.0,25,0.00,,,0.00,Rainwise IP-100,2013-05-18 19:04:00,
2013-05-18 15:09:00,68.0,31.0,30.27,NNW,337,10.0,19.0,25,0.00,,,0.00,Rainwise IP-100,2013-05-18 19:09:00,
2013-05-18 15:14:00,67.0,29.0,30.29,WNW,292,10.0,13.0,24,0.00,,,0.00,Rainwise IP-100,2013-05-18 19:14:00,
2013-05-18 15:19:00,68.0,31.0,30.29,SSE,157,2.0,10.0,25,0.00,,,0.00,Rainwise IP-100,2013-05-18 19:19:00,
2013-05-18 15:24:00,68.0,32.0,30.28,ESE,112,7.0,9.0,26,0.00,,,0.00,Rainwise IP-100,2013-05-18 19:24:00,
2013-05-18 15:29:00,68.0,32.0,30.28,East,90,6.0,7.0,26,0.00,,,0.00,Rainwise IP-100,2013-05-18 19:29:00,
2013-05-18 15:34:00,69.0,32.0,30.27,NNE,22,4.0,8.0,26,0.00,,,0.00,Rainwise IP-100,2013-05-18 19:34:00,
2013-05-18 15:39:00,71.0,33.0,30.27,NE,45,4.0,5.0,25,0.00,,,0.00,Rainwise IP-100,2013-05-18 19:39:00,
2013-05-18 15:44:00,72.0,33.0,30.26,North,360,6.0,7.0,24,0.00,,,0.00,Rainwise IP-100,2013-05-18 19:44:00,
2013-05-18 15:49:00,71.0,31.0,30.26,North,360,1.0,7.0,23,0.00,,,0.00,Rainwise IP-100,2013-05-18 19:49:00,
2013-05-18 15:54:00,70.0,32.0,30.27,East,90,3.0,8.0,24,0.00,,,0.00,Rainwise IP-100,2013-05-18 19:54:00,
2013-05-18 15:59:00,70.0,32.0,30.27,NNE,22,1.0,9.0,24,0.00,,,0.00,Rainwise IP-100,2013-05-18 19:59:00,
2013-05-18 16:04:00,71.0,33.0,30.27,NW,315,8.0,12.0,25,0.00,,,0.00,Rainwise IP-100,2013-05-18 20:04:00,
2013-05-18 16:09:00,69.0,29.0,30.27,North,360,9.0,13.0,23,0.00,,,0.00,Rainwise IP-100,2013-05-18 20:09:00,
2013-05-18 16:14:00,69.0,29.0,30.27,WNW,292,3.0,11.0,22,0.00,,,0.00,Rainwise IP-100,2013-05-18 20:14:00,
2013-05-18 16:19:00,69.0,29.0,30.27,NW,315,4.0,8.0,22,0.00,,,0.00,Rainwise IP-100,2013-05-18 20:19:00,
2013-05-18 16:24:00,70.0,35.0,30.27,NW,315,3.0,9.0,27,0.00,,,0.00,Rainwise IP-100,2013-05-18 20:24:00,
2013-05-18 16:29:00,69.0,32.0,30.27,NW,315,9.0,9.0,25,0.00,,,0.00,Rainwise IP-100,2013-05-18 20:29:00,
2013-05-18 16:34:00,68.0,32.0,30.27,SW,225,5.0,10.0,26,0.00,,,0.00,Rainwise IP-100,2013-05-18 20:34:00,
2013-05-18 16:39:00,68.0,31.0,30.27,SW,225,3.0,9.0,25,0.00,,,0.00,Rainwise IP-100,2013-05-18 20:39:00,
2013-05-18 16:44:00,69.0,31.0,30.27,North,360,0.0,6.0,24,0.00,,,0.00,Rainwise IP-100,2013-05-18 20:44:00,
2013-05-18 16:49:00,70.0,35.0,30.27,NW,315,4.0,6.0,27,0.00,,,0.00,Rainwise IP-100,2013-05-18 20:49:00,
2013-05-18 16:54:00,70.0,33.0,30.27,NE,45,2.0,9.0,25,0.00,,,0.00,Rainwise IP-100,2013-05-18 20:54:00,
2013-05-18 16:59:00,70.0,33.0,30.27,NNE,22,1.0,3.0,25,0.00,,,0.00,Rainwise IP-100,2013-05-18 20:59:00,
2013-05-18 17:04:00,71.0,31.0,30.27,NE,45,0.0,6.0,23,0.00,,,0.00,Rainwise IP-100,2013-05-18 21:04:00,
2013-05-18 17:09:00,71.0,32.0,30.27,North,360,5.0,7.0,24,0.00,,,0.00,Rainwise IP-100,2013-05-18 21:09:00,
2013-05-18 17:14:00,71.0,31.0,30.26,North,360,0.0,6.0,22,0.00,,,0.00,Rainwise IP-100,2013-05-18 21:14:00,
2013-05-18 17:19:00,71.0,33.0,30.26,North,360,3.0,6.0,25,0.00,,,0.00,Rainwise IP-100,2013-05-18 21:19:00,
2013-05-18 17:24:00,70.0,32.0,30.26,NNW,337,8.0,8.0,24,0.00,,,0.00,Rainwise IP-100,2013-05-18 21:24:00,
2013-05-18 17:29:00,70.0,33.0,30.26,North,360,3.0,9.0,25,0.00,,,0.00,Rainwise IP-100,2013-05-18 21:29:00,
2013-05-18 17:34:00,70.0,31.0,30.27,NNW,337,6.0,9.0,23,0.00,,,0.00,Rainwise IP-100,2013-05-18 21:34:00,
2013-05-18 17:39:00,70.0,33.0,30.27,NNW,337,6.0,8.0,25,0.00,,,0.00,Rainwise IP-100,2013-05-18 21:39:00,
2013-05-18 17:44:00,70.0,33.0,30.27,NE,45,1.0,6.0,25,0.00,,,0.00,Rainwise IP-100,2013-05-18 21:44:00,
2013-05-18 17:49:00,69.0,33.0,30.27,NE,45,5.0,6.0,27,0.00,,,0.00,Rainwise IP-100,2013-05-18 21:49:00,
2013-05-18 17:54:00,68.0,32.0,30.28,ENE,67,4.0,7.0,26,0.00,,,0.00,Rainwise IP-100,2013-05-18 21:54:00,
2013-05-18 17:59:00,69.0,32.0,30.28,ENE,67,0.0,6.0,26,0.00,,,0.00,Rainwise IP-100,2013-05-18 21:59:00,
2013-05-18 18:04:00,69.0,32.0,30.27,NW,315,0.0,5.0,26,0.00,,,0.00,Rainwise IP-100,2013-05-18 22:04:00,
2013-05-18 18:09:00,68.0,35.0,30.27,East,90,6.0,6.0,29,0.00,,,0.00,Rainwise IP-100,2013-05-18 22:09:00,
2013-05-18 18:14:00,67.0,33.0,30.28,East,90,1.0,6.0,29,0.00,,,0.00,Rainwise IP-100,2013-05-18 22:14:00,
2013-05-18 18:19:00,67.0,35.0,30.28,East,90,1.0,3.0,30,0.00,,,0.00,Rainwise IP-100,2013-05-18 22:19:00,
2013-05-18 18:24:00,66.0,35.0,30.27,East,90,4.0,6.0,32,0.00,,,0.00,Rainwise IP-100,2013-05-18 22:24:00,
2013-05-18 18:29:00,66.0,38.0,30.27,East,90,2.0,5.0,36,0.00,,,0.00,Rainwise IP-100,2013-05-18 22:29:00,
2013-05-18 18:34:00,66.0,37.0,30.28,East,90,1.0,5.0,35,0.00,,,0.00,Rainwise IP-100,2013-05-18 22:34:00,
2013-05-18 18:39:00,66.0,37.0,30.28,East,90,1.0,2.0,34,0.00,,,0.00,Rainwise IP-100,2013-05-18 22:39:00,
2013-05-18 18:44:00,66.0,35.0,30.28,ENE,67,1.0,4.0,32,0.00,,,0.00,Rainwise IP-100,2013-05-18 22:44:00,
2013-05-18 18:49:00,67.0,37.0,30.28,ENE,67,0.0,2.0,33,0.00,,,0.00,Rainwise IP-100,2013-05-18 22:49:00,
2013-05-18 18:54:00,68.0,33.0,30.28,NE,45,2.0,4.0,28,0.00,,,0.00,Rainwise IP-100,2013-05-18 22:54:00,
2013-05-18 18:59:00,68.0,35.0,30.28,NE,45,0.0,3.0,29,0.00,,,0.00,Rainwise IP-100,2013-05-18 22:59:00,
2013-05-18 19:04:00,69.0,33.0,30.27,NE,45,1.0,4.0,27,0.00,,,0.00,Rainwise IP-100,2013-05-18 23:04:00,
2013-05-18 19:09:00,68.0,35.0,30.27,NE,45,2.0,6.0,29,0.00,,,0.00,Rainwise IP-100,2013-05-18 23:09:00,
2013-05-18 19:14:00,66.0,37.0,30.28,NE,45,2.0,5.0,34,0.00,,,0.00,Rainwise IP-100,2013-05-18 23:14:00,
2013-05-18 19:19:00,65.0,38.0,30.28,NE,45,2.0,3.0,37,0.00,,,0.00,Rainwise IP-100,2013-05-18 23:19:00,
2013-05-18 19:24:00,65.0,37.0,30.29,NE,45,2.0,5.0,35,0.00,,,0.00,Rainwise IP-100,2013-05-18 23:24:00,
2013-05-18 19:29:00,64.0,38.0,30.29,NE,45,1.0,3.0,38,0.00,,,0.00,Rainwise IP-100,2013-05-18 23:29:00,
2013-05-18 19:34:00,64.0,37.0,30.29,NE,45,1.0,3.0,36,0.00,,,0.00,Rainwise IP-100,2013-05-18 23:34:00,
2013-05-18 19:39:00,64.0,36.0,30.29,NE,45,1.0,3.0,35,0.00,,,0.00,Rainwise IP-100,2013-05-18 23:39:00,
2013-05-18 19:44:00,63.0,36.0,30.29,NE,45,1.0,3.0,37,0.00,,,0.00,Rainwise IP-100,2013-05-18 23:44:00,
2013-05-18 19:49:00,63.0,38.0,30.29,NE,45,2.0,2.0,40,0.00,,,0.00,Rainwise IP-100,2013-05-18 23:49:00,
2013-05-18 19:54:00,62.0,38.0,30.30,NE,45,1.0,2.0,41,0.00,,,0.00,Rainwise IP-100,2013-05-18 23:54:00,
2013-05-18 19:59:00,61.0,41.0,30.30,NE,45,1.0,2.0,49,0.00,,,0.00,Rainwise IP-100,2013-05-18 23:59:00,
2013-05-18 20:04:00,61.0,40.0,30.31,NE,45,1.0,2.0,47,0.00,,,0.00,Rainwise IP-100,2013-05-19 00:04:00,
2013-05-18 20:09:00,61.0,40.0,30.31,NE,45,2.0,2.0,47,0.00,,,0.00,Rainwise IP-100,2013-05-19 00:09:00,
2013-05-18 20:14:00,61.0,38.0,30.31,NE,45,1.0,3.0,43,0.00,,,0.00,Rainwise IP-100,2013-05-19 00:14:00,
2013-05-18 20:19:00,61.0,38.0,30.31,NE,45,0.0,2.0,43,0.00,,,0.00,Rainwise IP-100,2013-05-19 00:19:00,
2013-05-18 20:24:00,60.0,39.0,30.31,NE,45,0.0,0.0,46,0.00,,,0.00,Rainwise IP-100,2013-05-19 00:24:00,
2013-05-18 20:29:00,60.0,39.0,30.31,NE,45,0.0,0.0,46,0.00,,,0.00,Rainwise IP-100,2013-05-19 00:29:00,
2013-05-18 20:34:00,60.0,38.0,30.31,NE,45,0.0,0.0,45,0.00,,,0.00,Rainwise IP-100,2013-05-19 00:34:00,
2013-05-18 20:39:00,60.0,40.0,30.31,ESE,112,3.0,4.0,49,0.00,,,0.00,Rainwise IP-100,2013-05-19 00:39:00,
2013-05-18 20:44:00,60.0,40.0,30.31,ESE,112,0.0,4.0,49,0.00,,,0.00,Rainwise IP-100,2013-05-19 00:44:00,
2013-05-18 20:49:00,59.0,41.0,30.31,ESE,112,0.0,1.0,51,0.00,,,0.00,Rainwise IP-100,2013-05-19 00:49:00,
2013-05-18 20:54:00,59.0,42.0,30.32,ESE,112,0.0,0.0,54,0.00,,,0.00,Rainwise IP-100,2013-05-19 00:54:00,
2013-05-18 20:59:00,59.0,41.0,30.32,ESE,112,1.0,2.0,51,0.00,,,0.00,Rainwise IP-100,2013-05-19 00:59:00,
2013-05-18 21:04:00,58.0,40.0,30.32,ESE,112,0.0,2.0,51,0.00,,,0.00,Rainwise IP-100,2013-05-19 01:04:00,
2013-05-18 21:09:00,58.0,41.0,30.32,ESE,112,0.0,0.0,54,0.00,,,0.00,Rainwise IP-100,2013-05-19 01:09:00,
2013-05-18 21:14:00,58.0,40.0,30.32,ESE,112,0.0,2.0,52,0.00,,,0.00,Rainwise IP-100,2013-05-19 01:14:00,
2013-05-18 21:19:00,58.0,41.0,30.32,ESE,112,2.0,2.0,54,0.00,,,0.00,Rainwise IP-100,2013-05-19 01:19:00,
2013-05-18 21:24:00,57.0,41.0,30.32,ESE,112,0.0,2.0,55,0.00,,,0.00,Rainwise IP-100,2013-05-19 01:24:00,
2013-05-18 21:29:00,57.0,42.0,30.32,SSE,157,5.0,5.0,57,0.00,,,0.00,Rainwise IP-100,2013-05-19 01:29:00,
2013-05-18 21:34:00,56.0,40.0,30.33,SSE,157,4.0,5.0,55,0.00,,,0.00,Rainwise IP-100,2013-05-19 01:34:00,
2013-05-18 21:39:00,56.0,40.0,30.33,SSE,157,0.0,6.0,56,0.00,,,0.00,Rainwise IP-100,2013-05-19 01:39:00,
2013-05-18 21:44:00,55.0,41.0,30.34,SSE,157,0.0,2.0,60,0.00,,,0.00,Rainwise IP-100,2013-05-19 01:44:00,
2013-05-18 21:49:00,55.0,42.0,30.34,SSE,157,2.0,3.0,62,0.00,,,0.00,Rainwise IP-100,2013-05-19 01:49:00,
2013-05-18 21:54:00,55.0,41.0,30.34,SSE,157,2.0,3.0,60,0.00,,,0.00,Rainwise IP-100,2013-05-19 01:54:00,
2013-05-18 21:59:00,55.0,41.0,30.34,SSE,157,3.0,4.0,58,0.00,,,0.00,Rainwise IP-100,2013-05-19 01:59:00,
2013-05-18 22:04:00,54.0,41.0,30.34,SSE,157,2.0,3.0,62,0.00,,,0.00,Rainwise IP-100,2013-05-19 02:04:00,
2013-05-18 22:09:00,54.0,40.0,30.34,SSE,157,3.0,4.0,59,0.00,,,0.00,Rainwise IP-100,2013-05-19 02:09:00,
2013-05-18 22:14:00,54.0,40.0,30.35,SSE,157,4.0,4.0,60,0.00,,,0.00,Rainwise IP-100,2013-05-19 02:14:00,
2013-05-18 22:19:00,54.0,40.0,30.35,SSE,157,4.0,5.0,59,0.00,,,0.00,Rainwise IP-100,2013-05-19 02:19:00,
2013-05-18 22:24:00,54.0,40.0,30.34,SSE,157,3.0,5.0,60,0.00,,,0.00,Rainwise IP-100,2013-05-19 02:24:00,
2013-05-18 22:29:00,53.0,40.0,30.34,SSE,157,3.0,4.0,62,0.00,,,0.00,Rainwise IP-100,2013-05-19 02:29:00,
2013-05-18 22:34:00,52.0,41.0,30.35,SSE,157,3.0,4.0,66,0.00,,,0.00,Rainwise IP-100,2013-05-19 02:34:00,
2013-05-18 22:39:00,52.0,40.0,30.35,SSE,157,1.0,4.0,64,0.00,,,0.00,Rainwise IP-100,2013-05-19 02:39:00,
2013-05-18 22:44:00,52.0,41.0,30.35,SSE,157,2.0,3.0,66,0.00,,,0.00,Rainwise IP-100,2013-05-19 02:44:00,
2013-05-18 22:49:00,51.0,40.0,30.35,SSE,157,3.0,4.0,66,0.00,,,0.00,Rainwise IP-100,2013-05-19 02:49:00,
2013-05-18 22:54:00,51.0,41.0,30.35,SSE,157,2.0,4.0,68,0.00,,,0.00,Rainwise IP-100,2013-05-19 02:54:00,
2013-05-18 22:59:00,51.0,40.0,30.35,SSE,157,2.0,5.0,67,0.00,,,0.00,Rainwise IP-100,2013-05-19 02:59:00,
2013-05-18 23:04:00,51.0,40.0,30.35,SSE,157,2.0,4.0,67,0.00,,,0.00,Rainwise IP-100,2013-05-19 03:04:00,
2013-05-18 23:09:00,51.0,40.0,30.35,SSE,157,2.0,3.0,67,0.00,,,0.00,Rainwise IP-100,2013-05-19 03:09:00,
2013-05-18 23:14:00,50.0,39.0,30.35,SSE,157,3.0,4.0,68,0.00,,,0.00,Rainwise IP-100,2013-05-19 03:14:00,
2013-05-18 23:19:00,50.0,40.0,30.35,SSE,157,0.0,4.0,69,0.00,,,0.00,Rainwise IP-100,2013-05-19 03:19:00,
2013-05-18 23:24:00,49.0,40.0,30.35,SSW,202,4.0,4.0,71,0.00,,,0.00,Rainwise IP-100,2013-05-19 03:24:00,
2013-05-18 23:29:00,50.0,39.0,30.35,South,180,5.0,6.0,68,0.00,,,0.00,Rainwise IP-100,2013-05-19 03:29:00,
2013-05-18 23:34:00,50.0,39.0,30.35,South,180,3.0,6.0,67,0.00,,,0.00,Rainwise IP-100,2013-05-19 03:34:00,
2013-05-18 23:39:00,50.0,39.0,30.35,South,180,2.0,5.0,68,0.00,,,0.00,Rainwise IP-100,2013-05-19 03:39:00,
2013-05-18 23:44:00,49.0,40.0,30.35,SW,225,5.0,5.0,70,0.00,,,0.00,Rainwise IP-100,2013-05-19 03:44:00,
2013-05-18 23:49:00,49.0,39.0,30.35,SSW,202,4.0,6.0,68,0.00,,,0.00,Rainwise IP-100,2013-05-19 03:49:00,
2013-05-18 23:54:00,49.0,39.0,30.36,SSW,202,0.0,5.0,69,0.00,,,0.00,Rainwise IP-100,2013-05-19 03:54:00,
2013-05-18 23:59:00,50.0,39.0,30.36,South,180,6.0,7.0,68,0.00,,,0.00,Rainwise IP-100,2013-05-19 03:59:00,